,,,PA_Meas_PMT16A,,PR_Meas_QMR101_102,,RH_Meas_QMH101,,SR_Meas_QMS101,,TA_Meas_QMH101,,GenWind,,GenWind,
date,time,status,PA,status,PR,status,RH,status,SR,status,TA,status,DirAvg,status,SpdAvg,
2011-12-31, 00:00:04,VALID,1003.22,VALID,0,VALID,84.4975,VALID,0,VALID,26.683,VALID,306,VALID,0.60625,
2011-12-31, 00:01:04,VALID,1003.23,VALID,0,VALID,84.3602,VALID,0,VALID,26.7004,VALID,350,VALID,1.48789,
2011-12-31, 00:02:04,VALID,1003.21,VALID,0,VALID,84.4212,VALID,0,VALID,26.7219,VALID,354,VALID,1.1957,
2011-12-31, 00:03:04,VALID,1003.16,VALID,0,VALID,84.4822,VALID,0,VALID,26.7024,VALID,1,VALID,1.15156,
2011-12-31, 00:04:04,VALID,1003.12,VALID,0,VALID,84.5814,VALID,0,VALID,26.7024,VALID,352,VALID,0.651953,
2011-12-31, 00:05:04,VALID,1003.16,VALID,0,VALID,84.6043,VALID,0,VALID,26.683,VALID,358,VALID,0.914063,
2011-12-31, 00:06:04,VALID,1003.12,VALID,0,VALID,84.7874,VALID,0,VALID,26.642,VALID,346,VALID,0.8875,
2011-12-31, 00:07:04,VALID,1003.12,VALID,0,VALID,84.8789,VALID,0,VALID,26.6245,VALID,347,VALID,1.17344,
2011-12-31, 00:08:04,VALID,1003.07,VALID,0,VALID,84.9323,VALID,0,VALID,26.5835,VALID,348,VALID,0.752344,
2011-12-31, 00:09:04,VALID,1003.07,VALID,0,VALID,84.9857,VALID,0,VALID,26.562,VALID,341,VALID,1.22148,
2011-12-31, 00:10:04,VALID,1003.09,VALID,0,VALID,85.0162,VALID,0,VALID,26.5835,VALID,318,VALID,0.151562,
2011-12-31, 00:11:05,VALID,1003.06,VALID,0,VALID,84.9247,VALID,0,VALID,26.5835,VALID,344,VALID,0.854688,
2011-12-31, 00:12:05,VALID,1003.05,VALID,0,VALID,85.0239,VALID,0,VALID,26.5855,VALID,319,VALID,0.211328,
2011-12-31, 00:13:05,VALID,1003.03,VALID,0,VALID,84.9018,VALID,0.0815089,VALID,26.5641,VALID,350,VALID,0.853906,
2011-12-31, 00:14:05,VALID,1003.03,VALID,0,VALID,84.9323,VALID,0.0815089,VALID,26.5855,VALID,349,VALID,0.721875,
2011-12-31, 00:15:05,VALID,1003.02,VALID,0,VALID,85.207,VALID,0,VALID,26.5661,VALID,8,VALID,0.284766,
2011-12-31, 00:16:05,VALID,1003.03,VALID,0,VALID,85.1612,VALID,0,VALID,26.5661,VALID,354,VALID,0.0558594,
2011-12-31, 00:17:05,VALID,1003.03,VALID,0,VALID,85.0391,VALID,0,VALID,26.5661,VALID,341,VALID,0.184766,
2011-12-31, 00:18:05,VALID,1003.02,VALID,0,VALID,84.9934,VALID,0,VALID,26.5251,VALID,332,VALID,0.280078,
2011-12-31, 00:19:05,VALID,1003,VALID,0,VALID,84.9781,VALID,0,VALID,26.5661,VALID,323,VALID,0.619531,
2011-12-31, 00:20:05,VALID,1002.92,VALID,0,VALID,85.0468,VALID,0,VALID,26.5855,VALID,311,VALID,0.270703,
2011-12-31, 00:21:05,VALID,1002.92,VALID,0,VALID,84.9094,VALID,0,VALID,26.5661,VALID,299,VALID,0.443359,
2011-12-31, 00:22:05,VALID,1002.94,VALID,0,VALID,84.856,VALID,0,VALID,26.5446,VALID,286,VALID,0.458594,
2011-12-31, 00:23:05,VALID,1002.94,VALID,0,VALID,84.6424,VALID,0,VALID,26.5466,VALID,322,VALID,0.248047,
2011-12-31, 00:24:05,VALID,1002.95,VALID,0,VALID,84.528,VALID,0,VALID,26.5855,VALID,300,VALID,0.818359,
2011-12-31, 00:25:05,VALID,1002.93,VALID,0,VALID,84.5051,VALID,0,VALID,26.5855,VALID,281,VALID,0.390625,
2011-12-31, 00:26:05,VALID,1002.94,VALID,0,VALID,84.7416,VALID,0,VALID,26.605,VALID,251,VALID,0.246094,
2011-12-31, 00:27:05,VALID,1002.91,VALID,0,VALID,84.3449,VALID,0,VALID,26.5855,VALID,237,VALID,0.480859,
2011-12-31, 00:28:05,VALID,1002.92,VALID,0,VALID,84.3449,VALID,0.0815089,VALID,26.605,VALID,237,VALID,0.403516,
2011-12-31, 00:29:05,VALID,1002.89,VALID,0,VALID,84.2305,VALID,0,VALID,26.5835,VALID,295,VALID,0.848437,
2011-12-31, 00:30:05,VALID,1002.92,VALID,0,VALID,84.4288,VALID,0,VALID,26.605,VALID,294,VALID,0.367969,
2011-12-31, 00:31:05,VALID,1002.9,VALID,0,VALID,84.4212,VALID,0,VALID,26.6245,VALID,293,VALID,0.417578,
2011-12-31, 00:32:05,VALID,1002.88,VALID,0,VALID,84.3983,VALID,0,VALID,26.5835,VALID,286,VALID,0.334375,
2011-12-31, 00:33:05,VALID,1002.87,VALID,0,VALID,84.4517,VALID,0,VALID,26.603,VALID,299,VALID,0.364453,
2011-12-31, 00:34:05,VALID,1002.84,VALID,0,VALID,84.4746,VALID,0.0815089,VALID,26.5835,VALID,341,VALID,0.573438,
2011-12-31, 00:35:05,VALID,1002.85,VALID,0,VALID,84.7111,VALID,0,VALID,26.5641,VALID,343,VALID,0.217187,
2011-12-31, 00:36:05,VALID,1002.82,VALID,0,VALID,84.8408,VALID,0,VALID,26.5661,VALID,344,VALID,0.524609,
2011-12-31, 00:37:05,VALID,1002.79,VALID,0,VALID,84.9857,VALID,0,VALID,26.5466,VALID,355,VALID,0.944531,
2011-12-31, 00:38:05,VALID,1002.77,VALID,0,VALID,85.0086,VALID,0,VALID,26.5251,VALID,346,VALID,0.941797,
2011-12-31, 00:39:05,VALID,1002.7,VALID,0,VALID,85.1765,VALID,0,VALID,26.5076,VALID,344,VALID,0.705078,
2011-12-31, 00:40:05,VALID,1002.69,VALID,0,VALID,85.3672,VALID,0,VALID,26.4667,VALID,344,VALID,0.909766,
2011-12-31, 00:41:05,VALID,1002.68,VALID,0,VALID,85.5884,VALID,0.0815089,VALID,26.4082,VALID,345,VALID,1.12227,
2011-12-31, 00:42:05,VALID,1002.65,VALID,0,VALID,85.947,VALID,0,VALID,26.3693,VALID,347,VALID,0.946094,
2011-12-31, 00:43:05,VALID,1002.64,VALID,0,VALID,86.008,VALID,0.0815089,VALID,26.3303,VALID,358,VALID,1.05469,
2011-12-31, 00:44:05,VALID,1002.61,VALID,0,VALID,85.9851,VALID,0,VALID,26.3303,VALID,344,VALID,0.900391,
2011-12-31, 00:45:05,VALID,1002.64,VALID,0,VALID,86.008,VALID,0,VALID,26.3303,VALID,353,VALID,0.996094,
2011-12-31, 00:46:05,VALID,1002.62,VALID,0,VALID,86.1224,VALID,0,VALID,26.3518,VALID,353,VALID,1.02383,
2011-12-31, 00:47:05,VALID,1002.62,VALID,0,VALID,86.0385,VALID,0,VALID,26.2913,VALID,351,VALID,0.862109,
2011-12-31, 00:48:05,VALID,1002.58,VALID,0,VALID,85.8859,VALID,0,VALID,26.3108,VALID,345,VALID,1.01797,
2011-12-31, 00:49:05,VALID,1002.56,VALID,0,VALID,85.7639,VALID,0,VALID,26.3498,VALID,350,VALID,0.991016,
2011-12-31, 00:50:05,VALID,1002.55,VALID,0,VALID,85.7028,VALID,0,VALID,26.3907,VALID,335,VALID,0.662109,
2011-12-31, 00:51:05,VALID,1002.56,VALID,0,VALID,85.6723,VALID,0,VALID,26.3693,VALID,346,VALID,0.352734,
2011-12-31, 00:52:05,VALID,1002.51,VALID,0,VALID,85.741,VALID,0,VALID,26.3887,VALID,348,VALID,0.428516,
2011-12-31, 00:53:05,VALID,1002.46,VALID,0,VALID,85.535,VALID,0,VALID,26.4297,VALID,339,VALID,0.658203,
2011-12-31, 00:54:05,VALID,1002.4,VALID,0,VALID,85.3824,VALID,0,VALID,26.4277,VALID,355,VALID,0.79375,
2011-12-31, 00:55:05,VALID,1002.36,VALID,0,VALID,85.0696,VALID,0,VALID,26.4667,VALID,350,VALID,0.898047,
2011-12-31, 00:56:05,VALID,1002.31,VALID,0,VALID,84.9094,VALID,0,VALID,26.5076,VALID,357,VALID,0.59375,
2011-12-31, 00:57:05,VALID,1002.34,VALID,0,VALID,84.8408,VALID,0,VALID,26.5056,VALID,358,VALID,0.353516,
2011-12-31, 00:58:05,VALID,1002.32,VALID,0,VALID,84.7492,VALID,0.0815089,VALID,26.5251,VALID,264,VALID,0.183594,
2011-12-31, 00:59:05,VALID,1002.32,VALID,0,VALID,84.7111,VALID,0,VALID,26.5251,VALID,288,VALID,0.794531,
2011-12-31, 01:00:05,VALID,1002.27,VALID,0,VALID,84.8103,VALID,0,VALID,26.5251,VALID,21,VALID,0.206641,
2011-12-31, 01:01:05,VALID,1002.26,VALID,0,VALID,84.7645,VALID,0.0815089,VALID,26.5251,VALID,343,VALID,0.365234,
2011-12-31, 01:02:05,VALID,1002.22,VALID,0,VALID,84.9628,VALID,0,VALID,26.5056,VALID,334,VALID,0.154687,
2011-12-31, 01:03:05,VALID,1002.22,VALID,0,VALID,84.734,VALID,0,VALID,26.5271,VALID,336,VALID,0.633984,
2011-12-31, 01:04:05,VALID,1002.2,VALID,0,VALID,84.7416,VALID,0.0815089,VALID,26.5056,VALID,21,VALID,0.532422,
2011-12-31, 01:05:05,VALID,1002.17,VALID,0,VALID,84.7645,VALID,0.0815089,VALID,26.5076,VALID,346,VALID,0.453125,
2011-12-31, 01:06:05,VALID,1002.15,VALID,0,VALID,84.589,VALID,0.0815089,VALID,26.5056,VALID,2,VALID,0.75625,
2011-12-31, 01:07:05,VALID,1002.15,VALID,0,VALID,84.7416,VALID,0,VALID,26.5056,VALID,349,VALID,0.390234,
2011-12-31, 01:08:05,VALID,1002.13,VALID,0,VALID,84.4059,VALID,0,VALID,26.5056,VALID,349,VALID,0.94375,
2011-12-31, 01:09:05,VALID,1002.11,VALID,0,VALID,84.5356,VALID,0,VALID,26.5056,VALID,331,VALID,0.896094,
2011-12-31, 01:10:05,VALID,1002.08,VALID,0,VALID,84.7263,VALID,0,VALID,26.5466,VALID,10,VALID,0.620703,
2011-12-31, 01:11:05,VALID,1002.09,VALID,0,VALID,84.5967,VALID,0,VALID,26.5056,VALID,349,VALID,0.302734,
2011-12-31, 01:12:05,VALID,1002.07,VALID,0,VALID,84.6501,VALID,0,VALID,26.4861,VALID,270,VALID,0.290234,
2011-12-31, 01:13:05,VALID,1002.04,VALID,0,VALID,84.4441,VALID,0,VALID,26.4861,VALID,337,VALID,0.925781,
2011-12-31, 01:14:05,VALID,1002.04,VALID,0,VALID,84.3602,VALID,0,VALID,26.5251,VALID,343,VALID,0.855078,
2011-12-31, 01:15:05,VALID,1002.04,VALID,0,VALID,84.3678,VALID,0,VALID,26.5251,VALID,18,VALID,0.700391,
2011-12-31, 01:16:05,VALID,1001.98,VALID,0,VALID,84.2228,VALID,0.0815089,VALID,26.5446,VALID,332,VALID,1.025,
2011-12-31, 01:17:05,VALID,1001.97,VALID,0,VALID,84.1771,VALID,0.0815089,VALID,26.5641,VALID,288,VALID,0.365234,
2011-12-31, 01:18:05,VALID,1001.97,VALID,0,VALID,84.0474,VALID,0,VALID,26.5835,VALID,346,VALID,0.810156,
2011-12-31, 01:19:05,VALID,1001.91,VALID,0,VALID,84.0855,VALID,0,VALID,26.605,VALID,350,VALID,0.902734,
2011-12-31, 01:20:05,VALID,1001.88,VALID,0,VALID,84.0931,VALID,0.0815089,VALID,26.5855,VALID,355,VALID,0.769922,
2011-12-31, 01:21:05,VALID,1001.81,VALID,0,VALID,84.0397,VALID,0,VALID,26.5835,VALID,345,VALID,1.17773,
2011-12-31, 01:22:05,VALID,1001.83,VALID,0,VALID,83.9101,VALID,0,VALID,26.603,VALID,348,VALID,1.16641,
2011-12-31, 01:23:05,VALID,1001.8,VALID,0,VALID,83.9558,VALID,0.0815089,VALID,26.6225,VALID,334,VALID,0.153516,
2011-12-31, 01:24:05,VALID,1001.8,VALID,0,VALID,84.0779,VALID,0,VALID,26.644,VALID,339,VALID,0.676953,
2011-12-31, 01:25:05,VALID,1001.81,VALID,0,VALID,84.1237,VALID,0,VALID,26.6225,VALID,334,VALID,0.406641,
2011-12-31, 01:26:05,VALID,1001.8,VALID,0,VALID,84.2228,VALID,0,VALID,26.603,VALID,339,VALID,0.671875,
2011-12-31, 01:27:05,VALID,1001.79,VALID,0,VALID,84.1618,VALID,0,VALID,26.6245,VALID,281,VALID,0.629297,
2011-12-31, 01:28:05,VALID,1001.8,VALID,0,VALID,84.2,VALID,0,VALID,26.644,VALID,330,VALID,0.690234,
2011-12-31, 01:29:05,VALID,1001.78,VALID,0,VALID,84.2762,VALID,0,VALID,26.603,VALID,331,VALID,0.128906,
2011-12-31, 01:30:05,VALID,1001.78,VALID,0,VALID,84.3754,VALID,0,VALID,26.6265,VALID,331,VALID,0.108594,
2011-12-31, 01:31:05,VALID,1001.81,VALID,0,VALID,84.2915,VALID,0,VALID,26.5835,VALID,333,VALID,0.591016,
2011-12-31, 01:32:05,VALID,1001.82,VALID,0,VALID,84.1618,VALID,0,VALID,26.5661,VALID,359,VALID,0.876172,
2011-12-31, 01:33:05,VALID,1001.85,VALID,0,VALID,84.0703,VALID,0,VALID,26.5661,VALID,333,VALID,1.37734,
2011-12-31, 01:34:05,VALID,1001.83,VALID,0,VALID,84.3602,VALID,0,VALID,26.5466,VALID,356,VALID,0.758203,
2011-12-31, 01:35:05,VALID,1001.82,VALID,0,VALID,84.0626,VALID,0,VALID,26.5466,VALID,353,VALID,0.842188,
2011-12-31, 01:36:05,VALID,1001.83,VALID,0,VALID,84.1618,VALID,0,VALID,26.5056,VALID,348,VALID,0.548437,
2011-12-31, 01:37:05,VALID,1001.8,VALID,0,VALID,83.9635,VALID,0,VALID,26.5271,VALID,353,VALID,0.548828,
2011-12-31, 01:38:05,VALID,1001.83,VALID,0,VALID,84.0474,VALID,0,VALID,26.5271,VALID,351,VALID,0.739844,
2011-12-31, 01:39:05,VALID,1001.81,VALID,0,VALID,84.0321,VALID,0,VALID,26.5076,VALID,350,VALID,0.0320312,
2011-12-31, 01:40:05,VALID,1001.79,VALID,0,VALID,84.1847,VALID,0,VALID,26.5076,VALID,349,VALID,0.350781,
2011-12-31, 01:41:05,VALID,1001.79,VALID,0,VALID,84.2,VALID,0,VALID,26.5076,VALID,339,VALID,0.794922,
2011-12-31, 01:42:05,VALID,1001.81,VALID,0,VALID,84.4517,VALID,0,VALID,26.4687,VALID,347,VALID,0.726172,
2011-12-31, 01:43:05,VALID,1001.81,VALID,0,VALID,84.4899,VALID,0,VALID,26.4687,VALID,341,VALID,0.889453,
2011-12-31, 01:44:05,VALID,1001.77,VALID,0,VALID,84.5814,VALID,0,VALID,26.4277,VALID,339,VALID,0.863672,
2011-12-31, 01:45:05,VALID,1001.77,VALID,0,VALID,84.6043,VALID,0,VALID,26.4082,VALID,342,VALID,0.991406,
2011-12-31, 01:46:05,VALID,1001.75,VALID,0,VALID,84.8332,VALID,0,VALID,26.4297,VALID,341,VALID,0.597266,
2011-12-31, 01:47:05,VALID,1001.71,VALID,0,VALID,85.0544,VALID,0,VALID,26.4102,VALID,343,VALID,0.703516,
2011-12-31, 01:48:05,VALID,1001.69,VALID,0,VALID,85.0086,VALID,0,VALID,26.3907,VALID,5,VALID,1.03242,
2011-12-31, 01:49:05,VALID,1001.69,VALID,0,VALID,84.9171,VALID,0,VALID,26.3693,VALID,354,VALID,1.4043,
2011-12-31, 01:50:05,VALID,1001.72,VALID,0,VALID,84.8789,VALID,0,VALID,26.4102,VALID,342,VALID,1.22891,
2011-12-31, 01:51:05,VALID,1001.7,VALID,0,VALID,84.7645,VALID,0,VALID,26.4297,VALID,340,VALID,0.751953,
2011-12-31, 01:52:05,VALID,1001.73,VALID,0,VALID,84.6958,VALID,0,VALID,26.4297,VALID,333,VALID,0.598437,
2011-12-31, 01:53:05,VALID,1001.75,VALID,0,VALID,84.7187,VALID,0,VALID,26.4492,VALID,270,VALID,0.533594,
2011-12-31, 01:54:05,VALID,1001.78,VALID,0,VALID,84.467,VALID,0,VALID,26.4472,VALID,325,VALID,0.886328,
2011-12-31, 01:55:05,VALID,1001.82,VALID,0,VALID,84.4517,VALID,0,VALID,26.4881,VALID,311,VALID,0.652344,
2011-12-31, 01:56:05,VALID,1001.83,VALID,0,VALID,84.528,VALID,0,VALID,26.4881,VALID,312,VALID,0.453906,
2011-12-31, 01:57:05,VALID,1001.86,VALID,0,VALID,84.1923,VALID,0,VALID,26.5076,VALID,344,VALID,1.21367,
2011-12-31, 01:58:05,VALID,1001.85,VALID,0,VALID,84.2839,VALID,0,VALID,26.5056,VALID,352,VALID,1.41797,
2011-12-31, 01:59:05,VALID,1001.91,VALID,0,VALID,84.2381,VALID,0,VALID,26.5661,VALID,307,VALID,1.37773,
2011-12-31, 02:00:05,VALID,1002.08,VALID,0,VALID,84.734,VALID,0,VALID,26.5641,VALID,242,VALID,1.21367,
2011-12-31, 02:01:05,VALID,1002.08,VALID,0,VALID,85.9775,VALID,0,VALID,26.5641,VALID,304,VALID,1.51289,
2011-12-31, 02:02:05,VALID,1002.32,VALID,0,VALID,86.6946,VALID,0,VALID,26.4861,VALID,283,VALID,2.6332,
2011-12-31, 02:03:05,VALID,1002.56,VALID,0,VALID,88.4798,VALID,0,VALID,26.4492,VALID,248,VALID,1.33047,
2011-12-31, 02:04:05,VALID,1002.55,VALID,0.5,VALID,87.0379,VALID,0,VALID,26.2524,VALID,216,VALID,3.07734,
2011-12-31, 02:05:05,VALID,1002.53,VALID,0,VALID,87.3278,VALID,0,VALID,25.8843,VALID,215,VALID,2.55859,
2011-12-31, 02:06:05,VALID,1002.6,VALID,0,VALID,89.9369,VALID,0,VALID,25.6116,VALID,193,VALID,0.869531,
2011-12-31, 02:07:05,VALID,1002.54,VALID,0.5,VALID,90.2954,VALID,0,VALID,25.3779,VALID,239,VALID,1.53477,
2011-12-31, 02:08:05,VALID,1002.54,VALID,0,VALID,90.7532,VALID,0,VALID,25.2416,VALID,214,VALID,2.22266,
2011-12-31, 02:09:05,VALID,1002.53,VALID,0,VALID,91.4321,VALID,0,VALID,25.1229,VALID,271,VALID,1.65586,
2011-12-31, 02:10:05,VALID,1002.54,VALID,0,VALID,91.8899,VALID,0,VALID,25.0469,VALID,255,VALID,1.06016,
2011-12-31, 02:11:05,VALID,1002.53,VALID,0,VALID,92.3018,VALID,0,VALID,24.969,VALID,343,VALID,1.31133,
2011-12-31, 02:12:05,VALID,1002.52,VALID,0,VALID,92.4925,VALID,0,VALID,24.9087,VALID,256,VALID,1.48555,
2011-12-31, 02:13:05,VALID,1002.49,VALID,0.5,VALID,92.401,VALID,0,VALID,24.8308,VALID,251,VALID,1.24727,
2011-12-31, 02:14:05,VALID,1002.47,VALID,0.5,VALID,91.8899,VALID,0,VALID,24.7548,VALID,254,VALID,1.22344,
2011-12-31, 02:15:05,VALID,1002.5,VALID,0,VALID,91.3635,VALID,0,VALID,24.599,VALID,260,VALID,1.49766,
2011-12-31, 02:16:05,VALID,1002.44,VALID,0.5,VALID,91.4245,VALID,0,VALID,24.5017,VALID,236,VALID,0.599219,
2011-12-31, 02:17:05,VALID,1002.45,VALID,0.5,VALID,91.8365,VALID,0,VALID,24.4043,VALID,210,VALID,0.565625,
2011-12-31, 02:18:05,VALID,1002.38,VALID,0,VALID,92.5612,VALID,0,VALID,24.3654,VALID,249,VALID,0.45625,
2011-12-31, 02:19:05,VALID,1002.35,VALID,0.5,VALID,92.9426,VALID,0,VALID,24.3265,VALID,359,VALID,0.212109,
2011-12-31, 02:20:05,VALID,1002.28,VALID,0,VALID,92.8358,VALID,0,VALID,24.2662,VALID,357,VALID,1.26914,
2011-12-31, 02:21:05,VALID,1002.25,VALID,0.5,VALID,93.202,VALID,0,VALID,24.2662,VALID,95,VALID,0.503906,
2011-12-31, 02:22:05,VALID,1002.21,VALID,0,VALID,93.3165,VALID,0,VALID,24.2857,VALID,127,VALID,1.07227,
2011-12-31, 02:23:05,VALID,1002.26,VALID,0.5,VALID,93.3394,VALID,0,VALID,24.2662,VALID,53,VALID,0.145313,
2011-12-31, 02:24:05,VALID,1002.23,VALID,0,VALID,93.0113,VALID,0,VALID,24.2273,VALID,128,VALID,0.767969,
2011-12-31, 02:25:05,VALID,1002.17,VALID,0,VALID,92.4849,VALID,0,VALID,24.2662,VALID,136,VALID,2.09102,
2011-12-31, 02:26:05,VALID,1002.21,VALID,0,VALID,92.3934,VALID,0,VALID,24.3636,VALID,140,VALID,1.12617,
2011-12-31, 02:27:05,VALID,1002.16,VALID,0.5,VALID,92.4468,VALID,0,VALID,24.4043,VALID,172,VALID,0.341016,
2011-12-31, 02:28:05,VALID,1002.12,VALID,0,VALID,92.7138,VALID,0,VALID,24.3654,VALID,171,VALID,0.210156,
2011-12-31, 02:29:05,VALID,1002.18,VALID,0,VALID,92.5765,VALID,0,VALID,24.3265,VALID,145,VALID,0.654688,
2011-12-31, 02:30:05,VALID,1002.2,VALID,0,VALID,92.7824,VALID,0,VALID,24.307,VALID,98,VALID,0.901563,
2011-12-31, 02:31:05,VALID,1002.22,VALID,0.5,VALID,93.1334,VALID,0,VALID,24.2486,VALID,98,VALID,0.463672,
2011-12-31, 02:32:05,VALID,1002.26,VALID,0,VALID,93.4767,VALID,0,VALID,24.2273,VALID,150,VALID,0.81875,
2011-12-31, 02:33:05,VALID,1002.25,VALID,0.5,VALID,93.7437,VALID,0.0815089,VALID,24.2078,VALID,141,VALID,0.854297,
2011-12-31, 02:34:05,VALID,1002.22,VALID,0,VALID,93.9191,VALID,0.0815089,VALID,24.1884,VALID,110,VALID,0.419922,
2011-12-31, 02:35:05,VALID,1002.15,VALID,0,VALID,93.9802,VALID,0,VALID,24.1689,VALID,32,VALID,0.584766,
2011-12-31, 02:36:05,VALID,1002.11,VALID,0.5,VALID,93.9725,VALID,0,VALID,24.1105,VALID,13,VALID,0.960938,
2011-12-31, 02:37:05,VALID,1002.08,VALID,0,VALID,93.9115,VALID,0,VALID,24.0716,VALID,325,VALID,1.18516,
2011-12-31, 02:38:05,VALID,1002.09,VALID,0,VALID,94.0794,VALID,0,VALID,24.0716,VALID,15,VALID,0.841406,
2011-12-31, 02:39:05,VALID,1002.11,VALID,0.5,VALID,94.1633,VALID,0,VALID,24.0521,VALID,16,VALID,0.263281,
2011-12-31, 02:40:05,VALID,1002.1,VALID,0,VALID,94.3006,VALID,0,VALID,24.0734,VALID,37,VALID,0.511719,
2011-12-31, 02:41:05,VALID,1002.11,VALID,0,VALID,94.5142,VALID,0.0815089,VALID,24.091,VALID,119,VALID,0.858203,
2011-12-31, 02:42:05,VALID,1002.13,VALID,0,VALID,94.5523,VALID,0,VALID,24.1105,VALID,122,VALID,0.710547,
2011-12-31, 02:43:05,VALID,1002.16,VALID,0,VALID,94.6439,VALID,0,VALID,24.1087,VALID,117,VALID,0.575391,
2011-12-31, 02:44:05,VALID,1002.1,VALID,0,VALID,94.6439,VALID,0,VALID,24.13,VALID,88,VALID,0.702734,
2011-12-31, 02:45:05,VALID,1002.08,VALID,0,VALID,94.6439,VALID,0,VALID,24.1105,VALID,32,VALID,0.705859,
2011-12-31, 02:46:05,VALID,1002.07,VALID,0,VALID,94.6439,VALID,0,VALID,24.091,VALID,21,VALID,0.497266,
2011-12-31, 02:47:05,VALID,1002.04,VALID,0,VALID,94.6973,VALID,0,VALID,24.1105,VALID,19,VALID,0.35625,
2011-12-31, 02:48:05,VALID,1001.99,VALID,0,VALID,94.7202,VALID,0,VALID,24.091,VALID,19,VALID,0.205469,
2011-12-31, 02:49:05,VALID,1001.97,VALID,0,VALID,94.7278,VALID,0,VALID,24.0716,VALID,19,VALID,0,
2011-12-31, 02:50:04,VALID,1001.9,VALID,0,VALID,94.8422,VALID,0,VALID,24.0892,VALID,19,VALID,0.396875,
2011-12-31, 02:51:04,VALID,1001.91,VALID,0,VALID,94.827,VALID,0,VALID,24.1105,VALID,35,VALID,0.700391,
2011-12-31, 02:52:04,VALID,1001.84,VALID,0,VALID,94.7965,VALID,0,VALID,24.0716,VALID,34,VALID,0.45,
2011-12-31, 02:53:04,VALID,1001.79,VALID,0,VALID,94.8499,VALID,0,VALID,24.1105,VALID,20,VALID,0.812109,
2011-12-31, 02:54:04,VALID,1001.8,VALID,0,VALID,94.8728,VALID,0,VALID,24.13,VALID,38,VALID,0.983594,
2011-12-31, 02:55:04,VALID,1001.79,VALID,0.5,VALID,94.7431,VALID,0,VALID,24.091,VALID,32,VALID,0.584766,
2011-12-31, 02:56:04,VALID,1001.81,VALID,0,VALID,94.7812,VALID,0.0815089,VALID,24.1105,VALID,33,VALID,0.102344,
2011-12-31, 02:57:04,VALID,1001.83,VALID,0,VALID,94.7888,VALID,0,VALID,24.1105,VALID,33,VALID,0,
2011-12-31, 02:58:04,VALID,1001.82,VALID,0,VALID,94.827,VALID,0,VALID,24.13,VALID,33,VALID,0.199609,
2011-12-31, 02:59:04,VALID,1001.82,VALID,0,VALID,94.888,VALID,0.0815089,VALID,24.13,VALID,33,VALID,0.563281,
2011-12-31, 03:00:04,VALID,1001.83,VALID,0,VALID,94.9109,VALID,0,VALID,24.13,VALID,33,VALID,0.300391,
2011-12-31, 03:01:04,VALID,1001.89,VALID,0,VALID,94.9338,VALID,0,VALID,24.13,VALID,31,VALID,0.650781,
2011-12-31, 03:02:04,VALID,1001.9,VALID,0,VALID,95.0024,VALID,0,VALID,24.1513,VALID,28,VALID,0.430859,
2011-12-31, 03:03:04,VALID,1001.94,VALID,0,VALID,95.033,VALID,0,VALID,24.1707,VALID,5,VALID,0.517187,
2011-12-31, 03:04:04,VALID,1001.93,VALID,0,VALID,95.1398,VALID,0,VALID,24.2078,VALID,5,VALID,0.713672,
2011-12-31, 03:05:04,VALID,1001.94,VALID,0,VALID,95.2466,VALID,0,VALID,24.2875,VALID,359,VALID,0.884766,
2011-12-31, 03:06:04,VALID,1001.94,VALID,0,VALID,95.2923,VALID,0,VALID,24.3654,VALID,359,VALID,0.435937,
2011-12-31, 03:07:04,VALID,1001.92,VALID,0,VALID,95.3457,VALID,0,VALID,24.4433,VALID,350,VALID,0.591406,
2011-12-31, 03:08:04,VALID,1001.92,VALID,0,VALID,95.3305,VALID,0,VALID,24.4804,VALID,3,VALID,0.753516,
2011-12-31, 03:09:04,VALID,1001.93,VALID,0,VALID,95.3229,VALID,0,VALID,24.5212,VALID,352,VALID,0.424219,
2011-12-31, 03:10:04,VALID,1001.92,VALID,0,VALID,95.2847,VALID,0,VALID,24.5601,VALID,352,VALID,0.142188,
2011-12-31, 03:11:04,VALID,1001.9,VALID,0,VALID,95.2847,VALID,0,VALID,24.599,VALID,352,VALID,0.534375,
2011-12-31, 03:12:04,VALID,1001.89,VALID,0,VALID,95.2161,VALID,0,VALID,24.6185,VALID,3,VALID,1.24961,
2011-12-31, 03:13:04,VALID,1001.84,VALID,0,VALID,95.155,VALID,0,VALID,24.6398,VALID,351,VALID,0.836328,
2011-12-31, 03:14:04,VALID,1001.84,VALID,0,VALID,95.0406,VALID,0,VALID,24.638,VALID,343,VALID,1.16953,
2011-12-31, 03:15:04,VALID,1001.79,VALID,0,VALID,95.0024,VALID,0.0815089,VALID,24.6537,VALID,12,VALID,0.682422,
2011-12-31, 03:16:04,VALID,1001.81,VALID,0,VALID,94.9414,VALID,0.0815089,VALID,24.714,VALID,16,VALID,0.830078,
2011-12-31, 03:17:04,VALID,1001.79,VALID,0,VALID,94.7965,VALID,0,VALID,24.7335,VALID,338,VALID,0.883984,
2011-12-31, 03:18:04,VALID,1001.82,VALID,0,VALID,94.7125,VALID,0.0815089,VALID,24.7529,VALID,347,VALID,0.716406,
2011-12-31, 03:19:04,VALID,1001.82,VALID,0,VALID,94.6286,VALID,0,VALID,24.7529,VALID,340,VALID,0.496484,
2011-12-31, 03:20:04,VALID,1001.81,VALID,0,VALID,94.5523,VALID,0,VALID,24.7529,VALID,345,VALID,0.837891,
2011-12-31, 03:21:04,VALID,1001.8,VALID,0,VALID,94.4761,VALID,0.0815089,VALID,24.7316,VALID,10,VALID,0.685547,
2011-12-31, 03:22:04,VALID,1001.78,VALID,0,VALID,94.4761,VALID,0,VALID,24.751,VALID,312,VALID,0.432031,
2011-12-31, 03:23:04,VALID,1001.76,VALID,0,VALID,94.4608,VALID,0,VALID,24.7529,VALID,326,VALID,0.214844,
2011-12-31, 03:24:04,VALID,1001.74,VALID,0,VALID,94.5066,VALID,0.0815089,VALID,24.7724,VALID,346,VALID,0.348437,
2011-12-31, 03:25:04,VALID,1001.7,VALID,0,VALID,94.415,VALID,0,VALID,24.7724,VALID,349,VALID,0.362891,
2011-12-31, 03:26:04,VALID,1001.67,VALID,0,VALID,94.4379,VALID,0,VALID,24.7724,VALID,285,VALID,0.710938,
2011-12-31, 03:27:04,VALID,1001.62,VALID,0,VALID,94.4303,VALID,0,VALID,24.751,VALID,307,VALID,0.383984,
2011-12-31, 03:28:04,VALID,1001.56,VALID,0,VALID,94.4455,VALID,0,VALID,24.7724,VALID,296,VALID,0.630078,
2011-12-31, 03:29:04,VALID,1001.51,VALID,0,VALID,94.2777,VALID,0,VALID,24.751,VALID,305,VALID,1.0707,
2011-12-31, 03:30:04,VALID,1001.46,VALID,0,VALID,94.3311,VALID,0.0815089,VALID,24.7724,VALID,302,VALID,0.378125,
2011-12-31, 03:31:04,VALID,1001.42,VALID,0,VALID,94.2624,VALID,0.0815089,VALID,24.751,VALID,291,VALID,0.830078,
2011-12-31, 03:32:04,VALID,1001.41,VALID,0,VALID,94.1938,VALID,0.0815089,VALID,24.7724,VALID,286,VALID,0.923047,
2011-12-31, 03:33:04,VALID,1001.37,VALID,0,VALID,94.2701,VALID,0.0815089,VALID,24.751,VALID,309,VALID,0.359766,
2011-12-31, 03:34:04,VALID,1001.32,VALID,0,VALID,94.2472,VALID,0,VALID,24.7316,VALID,291,VALID,0.498437,
2011-12-31, 03:35:04,VALID,1001.33,VALID,0,VALID,94.1862,VALID,0,VALID,24.7529,VALID,308,VALID,0.796875,
2011-12-31, 03:36:04,VALID,1001.37,VALID,0,VALID,94.2167,VALID,0.0815089,VALID,24.7335,VALID,352,VALID,0.375391,
2011-12-31, 03:37:04,VALID,1001.37,VALID,0,VALID,94.2472,VALID,0.0815089,VALID,24.7316,VALID,325,VALID,0.153906,
2011-12-31, 03:38:04,VALID,1001.38,VALID,0,VALID,94.2472,VALID,0,VALID,24.7121,VALID,358,VALID,0.841797,
2011-12-31, 03:39:04,VALID,1001.41,VALID,0,VALID,94.2472,VALID,0,VALID,24.7335,VALID,338,VALID,0.773438,
2011-12-31, 03:40:04,VALID,1001.42,VALID,0,VALID,94.2548,VALID,0,VALID,24.714,VALID,345,VALID,0.663672,
2011-12-31, 03:41:04,VALID,1001.44,VALID,0,VALID,94.2624,VALID,0.0815089,VALID,24.714,VALID,341,VALID,1.03633,
2011-12-31, 03:42:04,VALID,1001.44,VALID,0,VALID,94.209,VALID,0.0815089,VALID,24.6945,VALID,346,VALID,0.819141,